TimeCDT,TemperatureF,Dew PointF,Humidity,Sea Level PressureIn,VisibilityMPH,Wind Direction,Wind SpeedMPH,Gust SpeedMPH,PrecipitationIn,Events,Conditions,WindDirDegrees,DateUTC
12:12 AM,30.2,28.4,93,29.66,-9999.0,NW,13.8,24.2,N/A,,Overcast,310,2013-04-19 05:12:00
12:33 AM,30.2,28.4,93,29.65,-9999.0,NW,15.0,20.7,N/A,,Overcast,310,2013-04-19 05:33:00
12:52 AM,30.2,28.4,93,29.65,-9999.0,NW,15.0,19.6,N/A,,Overcast,310,2013-04-19 05:52:00
1:12 AM,30.2,28.4,93,29.65,-9999.0,NW,12.7,20.7,N/A,,Overcast,310,2013-04-19 06:12:00
1:33 AM,30.2,26.6,86,29.65,-9999.0,NW,15.0,-,N/A,,Overcast,310,2013-04-19 06:33:00
1:52 AM,30.2,26.6,86,29.64,-9999.0,NW,15.0,-,N/A,,Overcast,310,2013-04-19 06:52:00
2:12 AM,30.2,26.6,86,29.64,-9999.0,NW,12.7,-,N/A,,Unknown,310,2013-04-19 07:12:00
2:33 AM,28.4,26.6,93,29.64,-9999.0,NW,13.8,-,N/A,,Unknown,310,2013-04-19 07:33:00
2:52 AM,28.4,24.8,86,29.64,-9999.0,NW,13.8,-,N/A,,Unknown,310,2013-04-19 07:52:00
3:13 AM,28.4,24.8,86,29.64,-9999.0,NW,13.8,-,N/A,,Unknown,310,2013-04-19 08:13:00
3:32 AM,28.4,24.8,86,29.64,-9999.0,NW,13.8,21.9,N/A,,Unknown,310,2013-04-19 08:32:00
3:52 AM,28.4,23.0,80,29.64,-9999.0,NW,15.0,19.6,N/A,,Overcast,310,2013-04-19 08:52:00
4:13 AM,28.4,23.0,80,29.65,-9999.0,NW,13.8,-,N/A,,Overcast,310,2013-04-19 09:13:00
4:32 AM,28.4,23.0,80,29.65,-9999.0,NW,16.1,-,N/A,,Overcast,310,2013-04-19 09:32:00
4:52 AM,28.4,23.0,80,29.65,-9999.0,NW,13.8,18.4,N/A,,Overcast,310,2013-04-19 09:52:00
5:13 AM,28.4,23.0,80,29.66,-9999.0,NW,13.8,-,N/A,,Overcast,310,2013-04-19 10:13:00
5:52 AM,26.6,21.2,80,29.66,-9999.0,NW,13.8,-,N/A,,Scattered Clouds,310,2013-04-19 10:52:00
6:13 AM,26.6,21.2,80,29.67,-9999.0,NW,15.0,-,N/A,,Clear,310,2013-04-19 11:13:00
6:32 AM,26.6,21.2,80,29.68,-9999.0,WNW,12.7,-,N/A,,Clear,300,2013-04-19 11:32:00
6:52 AM,26.6,21.2,80,29.68,-9999.0,NW,12.7,-,N/A,,Clear,310,2013-04-19 11:52:00
7:13 AM,26.6,21.2,80,29.69,-9999.0,NW,13.8,19.6,N/A,,Clear,310,2013-04-19 12:13:00
7:32 AM,26.6,21.2,80,29.70,-9999.0,NW,16.1,-,N/A,,Clear,310,2013-04-19 12:32:00
7:52 AM,28.4,21.2,74,29.70,-9999.0,NW,15.0,-,N/A,,Clear,310,2013-04-19 12:52:00
8:13 AM,28.4,21.2,74,29.71,-9999.0,NW,13.8,19.6,N/A,,Clear,310,2013-04-19 13:13:00
8:32 AM,28.4,21.2,74,29.71,-9999.0,NW,16.1,-,N/A,,Clear,310,2013-04-19 13:32:00
8:52 AM,28.4,21.2,74,29.71,-9999.0,NW,17.3,21.9,N/A,,Clear,310,2013-04-19 13:52:00
9:13 AM,28.4,23.0,80,29.72,-9999.0,NW,16.1,23.0,N/A,,Clear,310,2013-04-19 14:13:00
9:52 AM,30.2,23.0,75,29.73,-9999.0,NW,19.6,25.3,N/A,,Clear,310,2013-04-19 14:52:00
10:13 AM,30.2,23.0,75,29.74,-9999.0,NW,20.7,-,N/A,,Clear,310,2013-04-19 15:13:00
10:32 AM,30.2,23.0,75,29.75,10.0,NW,19.6,29.9,N/A,,Clear,310,2013-04-19 15:32:00
10:52 AM,30.2,23.0,75,29.76,10.0,NW,20.7,26.5,N/A,,Clear,310,2013-04-19 15:52:00
11:13 AM,30.2,23.0,75,29.76,7.0,NW,23.0,29.9,N/A,,Scattered Clouds,310,2013-04-19 16:13:00
11:32 AM,30.2,23.0,75,29.77,5.0,NW,24.2,29.9,N/A,,Haze,310,2013-04-19 16:32:00
11:52 AM,32.0,23.0,69,29.79,10.0,NW,20.7,27.6,N/A,,Clear,310,2013-04-19 16:52:00
12:13 PM,32.0,23.0,69,29.79,10.0,NW,24.2,29.9,N/A,,Clear,310,2013-04-19 17:13:00
12:32 PM,32.0,23.0,69,29.80,10.0,NW,25.3,31.1,0.01,,Clear,320,2013-04-19 17:32:00
12:52 PM,32.0,23.0,69,29.81,10.0,NW,24.2,32.2,0.02,,Scattered Clouds,320,2013-04-19 17:52:00
1:13 PM,32.0,23.0,69,29.82,10.0,WNW,27.6,-,N/A,,Scattered Clouds,300,2013-04-19 18:13:00
1:32 PM,32.0,23.0,69,29.82,10.0,NW,25.3,33.4,0.01,,Scattered Clouds,320,2013-04-19 18:32:00
1:53 PM,32.0,23.0,69,29.83,10.0,NW,24.2,34.5,0.01,,Scattered Clouds,310,2013-04-19 18:53:00
2:12 PM,32.0,23.0,69,29.84,10.0,NW,26.5,33.4,N/A,,Mostly Cloudy,320,2013-04-19 19:12:00
2:32 PM,32.0,23.0,69,29.85,10.0,NW,26.5,35.7,N/A,,Scattered Clouds,310,2013-04-19 19:32:00
2:53 PM,32.0,23.0,69,29.86,10.0,NW,23.0,34.5,N/A,,Scattered Clouds,310,2013-04-19 19:53:00
3:12 PM,32.0,23.0,69,29.86,10.0,NW,24.2,32.2,N/A,,Mostly Cloudy,310,2013-04-19 20:12:00
3:32 PM,32.0,23.0,69,29.86,10.0,NW,25.3,33.4,N/A,,Mostly Cloudy,310,2013-04-19 20:32:00
3:53 PM,32.0,23.0,69,29.87,10.0,NW,26.5,32.2,N/A,,Overcast,310,2013-04-19 20:53:00
4:12 PM,32.0,24.8,75,29.88,10.0,NW,25.3,34.5,N/A,,Overcast,310,2013-04-19 21:12:00
4:32 PM,32.0,23.0,69,29.89,10.0,NW,27.6,38.0,N/A,,Overcast,310,2013-04-19 21:32:00
4:52 PM,32.0,23.0,69,29.90,10.0,NW,24.2,35.7,N/A,,Mostly Cloudy,310,2013-04-19 21:52:00
5:12 PM,32.0,23.0,69,29.91,10.0,NW,27.6,35.7,N/A,,Scattered Clouds,310,2013-04-19 22:12:00
5:33 PM,32.0,23.0,69,29.92,10.0,NW,23.0,32.2,N/A,,Scattered Clouds,320,2013-04-19 22:33:00
5:52 PM,32.0,23.0,69,29.93,10.0,NW,24.2,32.2,N/A,,Scattered Clouds,310,2013-04-19 22:52:00
6:12 PM,32.0,23.0,69,29.93,10.0,NW,23.0,32.2,N/A,,Mostly Cloudy,320,2013-04-19 23:12:00
6:33 PM,32.0,23.0,69,29.94,10.0,NW,20.7,28.8,N/A,,Mostly Cloudy,320,2013-04-19 23:33:00
6:52 PM,32.0,24.8,75,29.95,10.0,NW,25.3,-,N/A,,Mostly Cloudy,320,2013-04-19 23:52:00
7:12 PM,32.0,23.0,69,29.95,10.0,NW,23.0,28.8,N/A,,Scattered Clouds,320,2013-04-20 00:12:00
7:33 PM,32.0,24.8,75,29.96,10.0,NW,18.4,25.3,N/A,,Mostly Cloudy,320,2013-04-20 00:33:00
7:52 PM,32.0,23.0,69,29.97,10.0,NW,18.4,26.5,N/A,,Overcast,320,2013-04-20 00:52:00
8:12 PM,32.0,23.0,69,29.98,10.0,NW,17.3,26.5,N/A,,Mostly Cloudy,320,2013-04-20 01:12:00
8:33 PM,30.2,23.0,75,29.98,10.0,NW,12.7,-,N/A,,Mostly Cloudy,310,2013-04-20 01:33:00
8:52 PM,30.2,23.0,75,29.99,10.0,NW,17.3,23.0,N/A,,Scattered Clouds,310,2013-04-20 01:52:00
9:12 PM,30.2,23.0,75,30.00,10.0,NW,13.8,-,N/A,,Clear,310,2013-04-20 02:12:00
9:33 PM,30.2,23.0,75,30.01,10.0,NW,13.8,-,N/A,,Clear,310,2013-04-20 02:33:00
9:52 PM,30.2,23.0,75,30.02,10.0,NW,12.7,-,N/A,,Clear,310,2013-04-20 02:52:00
10:12 PM,28.4,23.0,80,30.03,10.0,NW,13.8,-,N/A,,Clear,310,2013-04-20 03:12:00
10:33 PM,28.4,21.2,74,30.03,10.0,NW,12.7,-,N/A,,Clear,310,2013-04-20 03:33:00
10:52 PM,28.4,21.2,74,30.03,10.0,NW,12.7,-,N/A,,Clear,310,2013-04-20 03:52:00
11:12 PM,28.4,21.2,74,30.04,10.0,NW,11.5,-,N/A,,Clear,310,2013-04-20 04:12:00
11:33 PM,28.4,19.4,69,30.04,10.0,NW,11.5,-,N/A,,Clear,310,2013-04-20 04:33:00